Location: ????????
(55.0559°N, 39.1270°E)
Time: 00:06:02
(UTC+00:00)

Cosmos 1624 Rocket - Pass Details

Date: 15 November 2025
Orbit: 752 x 779 km, 74.0° (Epoch: 12 December)

Event Time Altitude Azimuth Distance (km) Brightness Sun altitude
Rises 02:54:36 0° 211° (SSW) 3,197 7.0 -17.0°
Reaches altitude 10° 02:56:57 10° 213° (SSW) 2,275 6.2 -16.7°
Maximum altitude 03:02:07 75° 299° (WNW) 784 3.9 -15.9°
Drops below altitude 10° 03:07:19 10° 26° (NNE) 2,293 6.6 -15.2°
Sets 03:09:42 0° 28° (NNE) 3,224 7.5 -14.9°
